Location: Ferchesar
(52.6477°N, 12.4298°E)
Time: 17:10:47
(UTC+01:00)

Vanguard 3 - Pass Details

Date: 16 December 2021
Orbit: 508 x 3260 km, 33.3° (Epoch: 22 January)

Event Time Altitude Azimuth Distance (km) Brightness Sun altitude
Rises 05:43:54 0° 270° (W) 6,877 - -21.6°
Reaches altitude 10° 05:49:21 10° 260° (W) 6,067 - -20.8°
Exits shadow 05:52:32 16° 252° (WSW) 5,658 10.9 -20.3°
Maximum altitude 06:03:51 27° 212° (SSW) 4,822 10.9 -18.6°
Drops below altitude 10° 06:17:19 10° 164° (SSE) 5,583 11.8 -16.7°
Sets 06:22:07 0° 153° (SSE) 6,255 12.4 -16.0°
